Lakeville, MN

8:30 AM CDT on March 24, 2017 (GMT -0500)
Airlake

Weather History for KLVN - November, 2013

Change the Weather History Date:

Monday, November 4, 2013

  Actual Average Record
Temperature  
Mean Temperature 37 °F -  
Max Temperature 46 °F 44 °F 73 °F (1975)
Min Temperature 28 °F 28 °F -2 °F (1991)
Degree Days  
Heating Degree Days 28    
Moisture  
Dew Point 36 °F    
Average Humidity 82    
Maximum Humidity 100    
Minimum Humidity 62    
Precipitation  
Precipitation 0.09 in - - ()
Sea Level Pressure  
Sea Level Pressure 29.93 in    
Wind  
Wind Speed 11 mph (SSW)    
Max Wind Speed 16 mph    
Max Gust Speed 26 mph    
Visibility 9 miles    
Events Rain    
Averages and records for this station are not official NWS values.
T = Trace of Precipitation, MM = Missing Value Source: NWS Daily Summary

Daily Weather History Graph

Daily Weather History Graph

Search for Another Location

Airport or City:

Trip Planner

Search our weather history database for the weather conditions in past years. The results will help you decide how hot, cold, wet, or windy it might be!

Date:

Astronomy

Nov. 04, 2013 Rise Set
Actual Time 6:55 AM CST 4:57 PM CST
Civil Twilight 6:24 AM CST 5:27 PM CST
Nautical Twilight 5:49 AM CST 6:02 PM CST
Astronomical Twilight 5:15 AM CST 6:36 PM CST
Moon 8:08 AM CST (11/4) 5:59 PM CST (11/4)
Length of Visible Light 11h 03m
Length of Day
10h 02m
New Moon, 2% of the Moon is Illuminated
Nov 4
New Moon
Nov 9
First Quarter
Nov 17
Full
Nov 25
Last Quarter
Dec 2
New

Hourly Weather History & Observations

Time (CST) Temp. Windchill Dew Point Humidity Pressure Visibility Wind Dir Wind Speed Gust Speed Precip Events Conditions
12:10 AM 44.6 °F 37.8 °F 33.8 °F 66% 29.89 in 10.0 mi SSE 15.0 mph 25.3 mph N/A   Mostly Cloudy
12:30 AM 46.4 °F 40.4 °F 33.8 °F 62% 29.88 in 10.0 mi SSE 13.8 mph 23.0 mph N/A   Overcast
12:49 AM 46.4 °F 40.1 °F 33.8 °F 62% 29.88 in 10.0 mi SSE 15.0 mph 24.2 mph N/A   Overcast
1:10 AM 46.4 °F 40.1 °F 33.8 °F 62% 29.87 in 10.0 mi SSE 15.0 mph 21.9 mph N/A   Overcast
1:30 AM 46.4 °F 39.8 °F 33.8 °F 62% 29.87 in 10.0 mi SSE 16.1 mph 24.2 mph N/A   Mostly Cloudy
1:50 AM 46.4 °F 40.1 °F 33.8 °F 62% 29.87 in 10.0 mi SSE 15.0 mph 26.5 mph N/A   Scattered Clouds
2:10 AM 46.4 °F 40.1 °F 33.8 °F 62% 29.86 in 10.0 mi SSE 15.0 mph 23.0 mph N/A   Mostly Cloudy
2:30 AM 46.4 °F 40.4 °F 33.8 °F 62% 29.86 in 10.0 mi SSE 13.8 mph 20.7 mph N/A   Scattered Clouds
2:50 AM 46.4 °F 40.1 °F 33.8 °F 62% 29.86 in 10.0 mi SSE 15.0 mph 19.6 mph N/A   Mostly Cloudy
3:10 AM 46.4 °F 40.1 °F 33.8 °F 62% 29.86 in 10.0 mi SSE 15.0 mph 20.7 mph N/A   Scattered Clouds
3:29 AM 46.4 °F 40.4 °F 33.8 °F 62% 29.85 in 10.0 mi SSE 13.8 mph 19.6 mph N/A   Scattered Clouds
3:50 AM 44.6 °F 38.8 °F 33.8 °F 66% 29.85 in 10.0 mi SSE 11.5 mph 19.6 mph N/A   Scattered Clouds
4:10 AM 44.6 °F 38.1 °F 35.6 °F 71% 29.85 in 10.0 mi SSE 13.8 mph 18.4 mph N/A   Scattered Clouds
4:29 AM 44.6 °F 39.7 °F 35.6 °F 71% 29.85 in 10.0 mi SSE 9.2 mph 16.1 mph N/A   Clear
4:50 AM 44.6 °F 38.4 °F 35.6 °F 71% 29.85 in 10.0 mi SSE 12.7 mph 20.7 mph N/A   Clear
5:09 AM 44.6 °F 38.8 °F 35.6 °F 71% 29.85 in 10.0 mi SSE 11.5 mph 20.7 mph N/A   Clear
5:30 AM 44.6 °F 38.8 °F 35.6 °F 71% 29.84 in 10.0 mi SSE 11.5 mph 18.4 mph N/A   Clear
5:49 AM 44.6 °F 39.7 °F 35.6 °F 71% 29.84 in 10.0 mi SSE 9.2 mph 17.3 mph N/A   Clear
6:10 AM 42.8 °F 36.2 °F 35.6 °F 76% 29.84 in 10.0 mi SSE 12.7 mph 19.6 mph N/A   Clear
6:30 AM 42.8 °F 37.0 °F 35.6 °F 76% 29.84 in 10.0 mi SSE 10.4 mph 18.4 mph N/A   Clear
6:49 AM 42.8 °F 38.0 °F 35.6 °F 76% 29.84 in 10.0 mi SSE 8.1 mph 16.1 mph N/A   Scattered Clouds
7:10 AM 42.8 °F 36.2 °F 37.4 °F 81% 29.84 in 10.0 mi SSE 12.7 mph 18.4 mph N/A   Scattered Clouds
7:29 AM 42.8 °F 35.8 °F 37.4 °F 81% 29.85 in 10.0 mi SSE 13.8 mph - N/A   Scattered Clouds
7:50 AM 44.6 °F 39.2 °F 37.4 °F 76% 29.86 in 10.0 mi SSE 10.4 mph 17.3 mph N/A   Mostly Cloudy
8:10 AM 44.6 °F 38.1 °F 37.4 °F 76% 29.86 in 10.0 mi SSE 13.8 mph 18.4 mph N/A   Overcast
8:29 AM 44.6 °F 39.7 °F 37.4 °F 76% 29.86 in 10.0 mi South 9.2 mph 17.3 mph N/A   Overcast
8:50 AM 44.6 °F 38.1 °F 37.4 °F 76% 29.86 in 10.0 mi South 13.8 mph 19.6 mph N/A   Overcast
9:09 AM 46.4 °F 41.5 °F 37.4 °F 71% 29.86 in 10.0 mi South 10.4 mph 18.4 mph N/A   Overcast
9:30 AM 46.4 °F 40.4 °F 39.2 °F 76% 29.85 in 10.0 mi South 13.8 mph 19.6 mph N/A   Overcast
9:49 AM 46.4 °F 41.1 °F 39.2 °F 76% 29.85 in 10.0 mi South 11.5 mph 18.4 mph N/A   Overcast
10:10 AM 46.4 °F 40.7 °F 39.2 °F 76% 29.85 in 10.0 mi South 12.7 mph 18.4 mph N/A   Overcast
10:30 AM 46.4 °F 41.9 °F 41.0 °F 81% 29.85 in 7.0 mi South 9.2 mph 23.0 mph N/A Rain Rain
10:50 AM 44.6 °F 39.2 °F 41.0 °F 87% 29.86 in 10.0 mi South 10.4 mph - 0.02 in Rain Light Rain
11:10 AM 44.6 °F 39.2 °F 42.8 °F 93% 29.87 in 10.0 mi South 10.4 mph - 0.01 in Rain Light Rain
11:30 AM 44.6 °F 40.7 °F 42.8 °F 93% 29.86 in 7.0 mi South 6.9 mph 16.1 mph 0.05 in Rain Rain
11:50 AM 44.6 °F 39.7 °F 42.8 °F 93% 29.86 in 7.0 mi South 9.2 mph - 0.05 in Rain Light Rain
12:09 PM 44.6 °F 39.2 °F 42.8 °F 93% 29.86 in 5.0 mi South 10.4 mph 16.1 mph 0.01 in Rain Light Rain
12:30 PM 44.6 °F 40.2 °F 44.6 °F 100% 29.86 in 5.0 mi South 8.1 mph - 0.02 in Rain Light Rain
12:50 PM 46.4 °F 44.3 °F 44.6 °F 93% 29.85 in 10.0 mi SW 4.6 mph - 0.02 in   Light Drizzle
1:09 PM 46.4 °F 43.5 °F 44.6 °F 93% 29.85 in 10.0 mi SW 5.8 mph - N/A   Overcast
1:30 PM 44.6 °F 40.2 °F 41.0 °F 87% 29.87 in 10.0 mi WSW 8.1 mph - N/A   Overcast
1:49 PM 44.6 °F 39.2 °F 41.0 °F 87% 29.89 in 10.0 mi WSW 10.4 mph 18.4 mph N/A   Mostly Cloudy
2:10 PM 44.6 °F 40.2 °F 41.0 °F 87% 29.90 in 10.0 mi West 8.1 mph - N/A   Overcast
2:29 PM 46.4 °F 41.9 °F 41.0 °F 81% 29.91 in 10.0 mi West 9.2 mph - N/A   Overcast
2:50 PM 44.6 °F 40.2 °F 39.2 °F 81% 29.92 in 10.0 mi West 8.1 mph - N/A   Overcast
3:09 PM 44.6 °F 40.7 °F 39.2 °F 81% 29.93 in 10.0 mi West 6.9 mph - N/A   Overcast
3:30 PM 44.6 °F 40.7 °F 39.2 °F 81% 29.94 in 10.0 mi West 6.9 mph - N/A   Mostly Cloudy
3:49 PM 46.4 °F 43.5 °F 39.2 °F 76% 29.95 in 10.0 mi West 5.8 mph - N/A   Mostly Cloudy
4:10 PM 44.6 °F 40.7 °F 39.2 °F 81% 29.96 in 10.0 mi West 6.9 mph - N/A   Scattered Clouds
4:30 PM 44.6 °F 41.4 °F 37.4 °F 76% 29.98 in 10.0 mi West 5.8 mph - N/A   Scattered Clouds
4:49 PM 42.8 °F 39.3 °F 37.4 °F 81% 29.99 in 10.0 mi West 5.8 mph - N/A   Scattered Clouds
5:10 PM 42.8 °F 38.6 °F 37.4 °F 81% 30.00 in 10.0 mi West 6.9 mph - N/A   Scattered Clouds
5:30 PM 41.0 °F 38.0 °F 37.4 °F 87% 30.00 in 10.0 mi West 4.6 mph - N/A   Scattered Clouds
5:50 PM 39.2 °F 37.0 °F 35.6 °F 87% 30.01 in 10.0 mi WSW 3.5 mph - N/A   Clear
6:10 PM 37.4 °F 34.9 °F 35.6 °F 93% 30.02 in 10.0 mi WSW 3.5 mph - N/A   Clear
6:29 PM 37.4 °F - 33.8 °F 87% 30.03 in 10.0 mi Calm Calm - N/A   Clear
6:50 PM 35.6 °F 32.8 °F 35.6 °F 100% 30.04 in 10.0 mi SSW 3.5 mph - N/A   Clear
7:10 PM 30.2 °F - 30.2 °F 100% 30.04 in 7.0 mi Calm Calm - N/A   Clear
7:29 PM 33.8 °F - 33.8 °F 100% 30.05 in 7.0 mi Calm Calm - N/A   Clear
7:50 PM 32.0 °F 28.7 °F 30.2 °F 93% 30.06 in 7.0 mi SSW 3.5 mph - N/A   Clear
8:09 PM 32.0 °F 27.5 °F 32.0 °F 100% 30.07 in 10.0 mi SSW 4.6 mph - N/A   Clear
8:30 PM 35.6 °F 32.8 °F 35.6 °F 100% 30.07 in 10.0 mi SW 3.5 mph - N/A   Clear
8:50 PM 35.6 °F 32.8 °F 35.6 °F 100% 30.09 in 10.0 mi SW 3.5 mph - N/A   Clear
9:09 PM 35.6 °F 32.8 °F 33.8 °F 93% 30.09 in 10.0 mi WSW 3.5 mph - N/A   Clear
9:30 PM 33.8 °F 30.8 °F 32.0 °F 93% 30.11 in 10.0 mi SW 3.5 mph - N/A   Clear
9:49 PM 35.6 °F - 33.8 °F 93% 30.11 in 10.0 mi Calm Calm - N/A   Clear
10:10 PM 33.8 °F - 32.0 °F 93% 30.12 in 10.0 mi Calm Calm - N/A   Clear
10:29 PM 30.2 °F - 30.2 °F 100% 30.13 in 7.0 mi Calm Calm - N/A   Clear
10:50 PM 33.8 °F - 32.0 °F 93% 30.13 in 10.0 mi Calm Calm - N/A   Clear
11:09 PM 30.2 °F - 30.2 °F 100% 30.14 in 5.0 mi Calm Calm - N/A   Clear
11:30 PM 28.4 °F - 28.4 °F 100% 30.15 in 5.0 mi Calm Calm - N/A   Clear
11:50 PM 28.4 °F - 28.4 °F 100% 30.15 in 5.0 mi Calm Calm - N/A   Clear